This is the latest recevied weather packets stored in our database for station/object N8WJW. If no packets are shown the sender has not sent any weather packets the latest 10 day(s).
| Time | Temp. | Humidity | Pressure | Rain* | Wind** | Luminosity | Snow |
|---|---|---|---|---|---|---|---|
| 1777583364 | 11.11° C | 55% | 1014.9 hPa | 0 mm | - | 462 W/m² | - |
| 1777582451 | 11.11° C | 59% | 1015.1 hPa | 0 mm | - | 105 W/m² | - |
| 1777582151 | 11.11° C | 62% | 1014.9 hPa | 0 mm | - | 182 W/m² | - |
| 1777581850 | 11.11° C | 59% | 1015 hPa | 0 mm | - | 76 W/m² | - |
| 1777581550 | 10.56° C | 61% | 1015 hPa | 0 mm | - | 607 W/m² | - |
| 1777580634 | 10.56° C | 59% | 1015 hPa | 0 mm | - | 174 W/m² | - |
| 1777580329 | 11.11° C | 59% | 1014.9 hPa | 0 mm | - | 654 W/m² | - |
| 1777579116 | 10.56° C | 59% | 1015.1 hPa | 0 mm | - | 425 W/m² | - |
| 1777578815 | 11.11° C | 57% | 1014.9 hPa | 0 mm | - | 85 W/m² | - |
| 1777577902 | 11.67° C | 61% | 1015.1 hPa | 0 mm | - | 202 W/m² | - |
| 1777577295 | 11.11° C | 62% | 1015 hPa | 0 mm | - | 768 W/m² | - |
| 1777575476 | 11.11° C | 66% | 1015.1 hPa | 0 mm | - | 246 W/m² | - |
| 1777574868 | 10.56° C | 65% | 1015.3 hPa | 0 mm | - | 502 W/m² | - |
| 1777573646 | 9.44° C | 71% | 1015.4 hPa | 0 mm | - | 315 W/m² | - |
| 1777570606 | 8.89° C | 75% | 1015.4 hPa | 0 mm | - | 253 W/m² | - |
| 1777566967 | 9.44° C | 73% | 1015.3 hPa | 0 mm | - | 234 W/m² | - |
| 1777566361 | 8.89° C | 75% | 1015.3 hPa | 0 mm | - | 215 W/m² | - |
| 1777566059 | 8.89° C | 76% | 1015.4 hPa | 0 mm | - | 453 W/m² | - |
| 1777565754 | 8.33° C | 77% | 1015.2 hPa | 0 mm | - | 299 W/m² | - |
| 1777565147 | 8.33° C | 77% | 1015.2 hPa | 0 mm | - | 338 W/m² | - |
| 1777564538 | 7.78° C | 80% | 1015.2 hPa | 0 mm | - | 784 W/m² | - |
| 1777563627 | 7.78° C | 81% | 1015.3 hPa | 0 mm | - | 142 W/m² | - |
| 1777563326 | 7.78° C | 83% | 1015.2 hPa | 0 mm | - | 196 W/m² | - |
| 1777563023 | 7.78° C | 83% | 1015.3 hPa | 0 mm | - | 197 W/m² | - |
| 1777562718 | 7.78° C | 84% | 1015 hPa | 0 mm | - | 153 W/m² | - |
* Rain latest hour (hover to see other rain measurements)
** Current wind speed in m/s (hover to see current wind gust speed)